Simultaneous Nadir Overpasses (SNOs) Predictions

Prediction of SNOs between METOP-B and NOAA-19 Satellite Orbit:

Table of predicted SNOs for the next 14.0 days since TLE Epoch: 11/9/2018
Index Date (METOP-B) Time (METOP-B) Lat,Lon (METOP-B) SZA (METOP-B ) Date (NOAA-19) Time (NOAA-19) Lat,Lon (NOAA-19) SZA (NOAA-19 ) Distance(km) Time Diff (sec)
1 11/17/2018 01:51:16 -78.91, -14.63 81.77 11/17/2018 01:50:05 -78.92, -16.29 81.86 35.54 71
2 11/17/2018 02:42:00 78.78, 151.87 98.08 11/17/2018 02:41:03 78.80, 151.81 98.09 2.81 57
3 11/17/2018 03:32:41 -78.78, -40.77 81.91 11/17/2018 03:32:02 -78.78, -40.78 81.92 0.45 39
4 11/17/2018 04:23:22 78.77, 126.45 98.08 11/17/2018 04:23:03 78.77, 126.56 98.08 2.43 19
5 11/17/2018 05:14:03 -78.77, -66.19 81.91 11/17/2018 05:14:03 -78.78, -66.28 81.91 2.14 0
6 11/17/2018 06:04:44 78.75, 101.03 98.08 11/17/2018 06:05:04 78.77, 101.06 98.10 1.57 20
7 11/17/2018 06:55:25 -78.76, -91.61 81.91 11/17/2018 06:56:03 -78.75, -91.53 81.91 2.26 38
8 11/17/2018 07:46:06 78.74, 75.61 98.08 11/17/2018 07:47:05 78.77, 75.57 98.12 2.80 59




NCC Satellite Simultaneous Nadir Overpasses (SNOs) Prediction Service
